Regional Weather Roundup
Issued by NWS Northern Indiana

Home | Current Version | Previous Version | Graphics & Text | Print | Product List | Glossary On
Versions: 1 2 3 4 5 6 7 8 9 10 11 12 13 14 15 16 17 18 19 20 21 22 23 24 25 26 27 28 29 30 31 32 33 34 35 36 37 38 39 40 41 42 43 44 45 46 47 48 49 50
000
ASUS43 KIWX 291300
RWRIWX

KIWX WEATHER ROUNDUP
NATIONAL WEATHER SERVICE NORTHERN INDIANA
900 AM EDT FRI APR 29 2016

NOTE: "FAIR" INDICATES FEW OR NO CLOUDS BELOW 12,000 FEET WITH NO
SIGNIFICANT WEATHER AND/OR OBSTRUCTIONS TO VISIBILITY.

* THESE STATIONS ARE NOT UNDER NWS QUALITY CONTROL. THEY ALSO MAY NOT
  REPORT WEATHER SUCH AS PRECIPITATION OR FOG.

INZ001>027-291400-
NORTHERN INDIANA

CITY           SKY/WX    TMP DP  RH WIND       PRES   REMARKS
GARY*          CLOUDY    45  45 100 N9        30.08S FOG
SOUTH BEND     CLOUDY    47  42  83 W5        30.05S
ELKHART*       CLOUDY    46  41  81 S3        30.05S
GOSHEN         CLOUDY    45  42  89 SE3       30.04S
ANGOLA*        CLOUDY    45  32  61 E3        30.04R
FORT WAYNE     LGT RAIN  46  40  79 SW3       30.05R
PERU/GRISSOM   CLOUDY    50  50 100 NW8       30.02S FOG

$$
INZ028>050-291400-
CENTRAL INDIANA

CITY           SKY/WX    TMP DP  RH WIND       PRES   REMARKS
LAFAYETTE      CLOUDY    48  47  96 NW6       30.04F FOG
KOKOMO*        CLOUDY    52  45  76 NW3       30.03S
MUNCIE*        CLOUDY    50  45  83 CALM      30.04R HAZE
INDIANAPOLIS   MOSUNNY   55  48  77 NW7       30.02F FOG

$$
MIZ043>046-050>051-056>058-064>065-071>073-077>080-291400-
SOUTHWEST LOWER MICHIGAN

CITY           SKY/WX    TMP DP  RH WIND       PRES   REMARKS
BATTLE CREEK   CLOUDY    44  36  73 CALM      30.06R
BENTON HARBOR  CLOUDY    46  42  86 E3        30.05R
COLDWATER*     CLOUDY    46  37  70 W5        30.05R
HILLSDALE*     CLOUDY    45  33  63 CALM      30.04R
HOLLAND        CLOUDY    42  37  82 NE5       30.08R
GRAND RAPIDS   CLOUDY    42  36  79 NE8       30.08R
KALAMAZOO      LGT RAIN  44  38  79 CALM      30.07R
STURGIS*       CLOUDY    44  38  77 S6        30.04S
THREE RIVERS*  LGT RAIN  45  39  81 CALM      30.06R

$$
OHZ001>008-015>018-024>025-291400-
NORTHWEST OHIO

CITY           SKY/WX    TMP DP  RH WIND       PRES   REMARKS
DEFIANCE       CLOUDY    48  37  65 NE3       30.05R
FINDLAY        CLOUDY    46  39  76 NW3       30.03R
TOLEDO EXPRESS CLOUDY    46  33  60 CALM      30.04R
TOLEDO METCALF CLOUDY    47  36  65 NE5       30.05R
LIMA           CLOUDY    45  44  97 NW5       30.03S FOG

$$
AND FOR LAKE MICHIGAN COASTAL AND OPEN LAKE BUOY OBSERVATIONS

STATION/POSITION TEMP    WIND        PRES    VSBY  WAVE
                 AIR SEA DIR/SP/G                  HT/PER
                 (F)     (DEG/KT/KT) (MB)    (MI)  (FT/S)
CALUMET HARBOR    44     320/  4/  6 1017.9R
MICHIGAN CITY     42     260/ 12/ 14   N/A
BURNS HARBOR      42     330/ 12/ 16 1018.6R
SAINT JOSEPH      46      CALM  /  2 1017.9R
SOUTH LAKE BUOY   40 40   40/  6/  8 1018.3          1/ 3
4 MI NW BRIDGMAN  43 46  270/ 10/ 12   N/A           2/ 4

$$
&&




USA.gov is the U.S. government's official web portal to all federal, state and local government web resources and services.